Temperature
25 26 26 27 27 27 27 27 26 27 27 26 26 26 27 26 26 25 25 24 23 22 21 19 19 18 17 17 17 17 17 17 16 16 16 16 16 15 15 15 15 15 15 15
25 26 27 27 27 26 26 26 26 27 26 26 26 26 27 26 26 25 25 24 23 22 21 19 18 18 17 17 17 17 17 17 16 16 16 16 15 15 15 15 15 15 15 15
25 27 27 26 26 26 26 26 26 26 26 26 26 26 26 26 25 24 24 23 23 22 20 19 18 18 17 17 17 17 17 17 16 16 16 16 15 15 15 15 15 15 15 15
26 27 26 26 26 26 26 27 26 26 26 26 26 25 26 26 26 25 24 23 23 22 20 19 18 18 17 17 17 16 16 17 16 16 16 16 16 16 15 15 15 15 15 15
26 26 26 26 26 26 26 27 26 26 26 26 26 25 26 26 26 25 24 23 23 22 20 19 18 18 17 17 17 16 16 16 16 16 16 15 15 15 15 15 15 15 15 15
26 27 26 26 26 26 26 26 26 26 26 25 26 25 25 26 25 25 25 23 22 21 20 19 18 17 17 17 16 16 16 16 16 16 16 15 15 15 15 15 15 15 15 14
26 26 26 26 26 26 26 25 24 25 25 25 26 25 25 25 25 24 24 23 21 20 20 19 18 17 17 16 16 16 16 16 16 16 15 15 15 15 15 15 15 14 14 14
25 25 26 26 25 25 25 25 24 24 24 25 25 25 25 25 24 23 23 22 21 20 19 19 18 17 17 16 16 16 16 16 16 15 15 15 15 15 15 15 15 14 14 14
25 25 26 26 26 26 25 25 26 25 25 25 25 25 25 24 23 23 22 21 21 20 19 18 18 17 17 16 16 16 15 15 15 15 15 15 15 15 15 15 14 14 14 14
25 24 25 25 25 25 26 26 25 24 23 23 24 24 25 24 23 23 22 21 20 19 19 18 17 17 17 16 16 16 15 15 15 15 15 15 15 15 15 14 14 14 14 14
25 24 25 25 24 25 25 25 25 25 24 23 23 24 25 24 23 23 22 21 20 19 19 18 17 16 16 16 16 15 15 15 15 15 15 15 15 15 14 14 14 14 14 14
24 24 24 25 25 25 25 25 24 23 23 23 23 23 24 24 23 22 22 21 20 19 18 17 17 16 16 16 16 16 15 15 15 15 14 14 14 14 14 14 14 14 14 14
24 23 23 23 24 24 24 24 24 24 23 23 23 23 23 23 22 22 21 20 19 18 18 17 16 16 16 16 15 16 15 15 15 14 14 14 14 14 14 14 14 14 14 14
23 23 23 23 24 24 24 24 24 24 23 23 23 23 23 22 22 21 20 19 19 18 17 17 16 16 15 15 15 15 15 15 15 14 14 14 14 14 14 14 14 14 14 13
23 23 23 24 24 24 24 23 23 23 23 23 23 22 22 22 21 20 19 19 18 18 17 17 16 16 15 15 15 15 15 14 14 14 14 14 14 14 13 14 13 13 13 13
22 22 23 23 23 23 23 23 23 22 23 23 22 22 22 21 20 19 19 18 18 18 17 17 16 15 15 15 15 15 14 14 14 14 14 14 13 13 13 13 13 13 13 13
22 21 22 22 23 22 22 22 22 22 22 22 22 22 21 20 20 19 18 18 18 17 17 16 16 15 15 15 15 14 14 14 14 14 14 13 13 13 13 13 13 13 13 13
20 21 22 22 21 20 22 22 22 21 21 21 21 21 20 20 19 18 17 17 17 17 16 16 15 15 15 15 14 14 14 14 14 14 14 13 13 13 13 13 13 13 12 12
19 20 21 21 21 21 21 21 21 20 20 20 20 20 19 19 19 18 17 17 16 16 16 15 15 15 15 15 14 14 14 14 14 14 14 13 13 13 13 13 13 12 12 12
19 19 21 21 20 20 20 20 20 20 19 18 18 18 18 19 20 19 17 16 16 15 15 15 15 15 14 14 14 14 14 14 14 14 13 13 13 13 13 13 12 12 12 12
19 19 20 20 20 20 19 19 20 19 18 17 17 17 17 17 18 16 16 15 15 15 15 14 14 14 14 14 14 14 14 14 14 14 13 13 13 13 13 12 12 12 12 12
18 19 19 20 19 19 17 19 18 17 16 15 15 15 15 15 15 15 15 15 15 14 14 14 14 14 14 14 14 13 13 14 13 13 13 13 12 12 13 12 12 12 12 12
17 17 18 18 17 16 15 16 15 15 15 15 15 15 15 15 15 15 15 14 14 14 14 14 14 14 13 13 13 13 13 13 13 13 13 12 12 12 12 12 12 12 12 12
16 16 16 16 16 15 15 14 14 14 14 14 14 14 14 14 15 14 14 14 14 13 13 13 13 13 13 13 13 13 13 13 12 12 12 12 12 12 12 12 12 12 12 12
15 15 16 16 15 15 14 13 13 13 14 14 14 14 14 14 14 14 13 13 13 13 13 13 13 13 13 13 12 13 12 12 12 12 12 12 12 12 12 12 12 12 12 12
14 14 14 15 14 14 13 13 13 13 13 13 13 13 13 13 13 13 13 13 13 12 12 12 12 12 12 12 12 12 12 12 12 12 12 12 12 12 12 12 12 12 12 11
Wind_Speed
10 11 11 10 10 10 9 10 10 8 6 8 10 10 9 7 8 8 6 5 5 4 4 4 5 6 6 6 7 7 6 6 6 5 5 4 4 3 3 3 3 3 3 4
10 13 11 8 8 10 10 11 10 7 5 7 9 11 9 8 8 7 7 6 7 6 6 5 5 6 6 6 6 7 7 6 6 5 4 3 3 3 3 2 3 3 3 3
14 7 6 9 10 11 12 11 10 8 7 8 10 10 7 6 5 5 6 6 6 6 6 7 6 6 6 6 6 6 6 6 6 6 5 4 4 3 3 3 3 3 3 3
12 9 9 11 11 11 11 9 9 10 10 8 8 9 6 5 5 5 5 6 6 6 7 7 7 7 6 6 6 6 6 6 5 6 5 6 4 3 3 2 3 3 3 3
10 8 10 12 10 10 9 7 9 11 12 11 9 10 6 4 5 5 5 5 5 6 7 7 7 7 6 6 6 7 7 5 5 5 5 5 4 3 3 3 4 3 3 3
11 8 8 9 8 8 7 7 9 10 10 11 8 8 6 3 3 3 3 4 4 5 7 7 7 7 6 6 6 7 7 6 5 5 5 4 4 4 4 4 4 3 3 2
11 11 10 8 9 9 9 8 7 8 8 7 4 7 5 1 1 2 3 3 4 5 6 8 8 8 7 7 7 7 8 7 6 5 5 4 5 5 5 4 4 3 3 2
10 10 10 9 10 8 10 11 8 7 8 7 5 6 3 1 1 1 1 2 3 5 6 7 7 7 7 7 7 7 8 7 6 6 5 5 5 4 4 4 3 3 2 2
8 7 7 8 8 9 9 10 9 10 10 9 6 5 4 3 2 2 2 2 3 4 6 7 7 7 6 7 7 7 7 7 7 6 6 5 4 4 4 4 4 3 2 3
7 7 7 8 8 9 9 7 7 8 7 8 8 7 4 4 2 2 2 3 3 4 6 6 7 7 6 6 7 7 7 7 6 6 5 5 5 4 4 4 4 4 3 3
8 7 8 9 10 10 9 9 8 8 7 8 8 4 1 1 1 1 2 3 3 4 6 6 6 6 6 6 7 7 7 7 6 6 5 5 5 4 4 4 4 4 3 3
7 6 8 9 7 7 10 10 9 9 8 8 9 4 2 1 0 1 1 2 3 4 5 6 7 7 6 6 6 7 7 7 7 6 6 5 5 4 4 4 3 3 3 3
6 6 7 8 8 9 10 9 9 9 8 8 9 3 3 2 1 1 1 2 3 4 5 6 6 6 6 6 6 7 6 6 6 6 6 5 5 4 4 3 3 3 3 3
5 7 9 9 5 6 9 9 10 10 9 9 9 6 1 0 1 1 1 2 3 4 5 6 6 6 6 6 5 5 6 6 6 6 6 6 5 4 4 3 3 3 3 3
5 9 10 9 7 8 9 9 10 11 11 10 8 6 4 2 1 0 1 2 3 4 5 6 6 6 6 6 5 5 5 6 6 6 6 5 5 4 4 4 3 3 3 3
6 7 9 10 8 8 9 10 10 10 11 10 8 6 2 0 0 1 1 2 3 4 5 5 5 6 6 6 6 5 5 5 6 5 5 5 5 5 4 4 3 3 3 2
6 7 9 10 8 9 10 8 9 9 8 8 8 4 1 1 0 1 1 1 2 3 4 4 5 5 5 6 6 6 6 5 5 5 5 5 5 5 5 4 4 3 3 2
7 9 7 8 7 10 3 2 4 6 5 4 3 2 2 1 1 1 1 1 1 1 2 3 4 4 4 5 6 6 6 6 6 5 5 5 5 5 5 4 3 3 3 3
8 8 7 7 9 6 4 3 3 5 4 1 1 1 1 1 2 3 2 1 0 0 1 2 3 4 4 5 5 6 5 5 6 6 5 5 5 5 5 4 3 3 3 3
6 8 8 8 9 6 2 1 1 4 4 3 2 1 1 1 3 2 3 3 1 1 1 2 3 3 4 4 5 6 6 5 5 5 5 5 5 5 5 4 3 3 3 3
6 7 10 10 7 3 3 1 3 5 1 3 3 2 1 2 2 2 3 3 2 2 1 2 2 3 3 4 5 6 6 6 5 5 5 5 5 5 5 4 3 3 3 3
3 4 6 7 7 2 5 1 1 3 3 2 2 2 2 2 2 1 2 2 1 1 1 2 2 2 3 4 5 5 5 5 5 5 6 5 5 5 4 4 4 4 4 4
1 3 2 1 1 4 4 3 3 2 2 1 1 1 1 1 2 1 1 1 1 1 1 2 2 2 2 3 4 4 4 5 5 5 6 5 5 5 4 5 5 4 4 4
0 2 1 1 3 2 3 4 3 2 1 1 1 1 1 1 2 1 1 1 1 1 1 2 2 3 3 3 4 4 4 4 5 5 6 6 6 6 5 5 4 4 4 3
3 2 1 2 1 1 2 3 3 2 2 2 2 2 2 2 1 1 1 1 1 1 0 1 1 2 2 2 2 3 3 4 5 5 5 5 6 5 5 5 4 4 3 3
2 2 2 1 1 1 1 3 3 3 3 3 2 2 2 2 2 1 1 0 0 0 1 1 1 1 1 1 2 2 3 4 4 4 5 5 5 4 5 4 4 1 3 3
Wind_Direction
197 218 223 225 233 255 259 258 260 261 262 257 261 269 268 256 247 247 242 224 216 201 181 168 170 170 167 170 177 182 182 175 178 177 180 173 173 172 164 170 165 183 187 185
205 224 230 231 232 241 247 252 255 254 257 263 267 269 264 252 247 250 246 220 205 193 169 163 165 166 168 171 175 178 179 177 182 171 175 173 163 171 166 168 158 171 173 185
219 222 204 220 225 236 243 251 262 273 274 256 263 258 244 233 234 239 236 228 204 189 176 170 168 169 167 168 176 181 177 174 175 169 168 157 154 166 158 160 157 160 166 176
229 230 219 226 231 237 245 251 264 264 264 263 258 270 247 227 224 228 231 226 211 194 179 173 172 169 168 168 171 172 166 160 160 169 176 178 176 173 164 164 148 145 145 151
222 216 221 230 233 234 248 257 256 259 263 266 250 261 257 217 241 233 224 221 209 195 183 176 173 169 164 167 167 163 155 151 159 172 173 179 173 163 151 149 140 142 130 132
237 224 227 236 235 231 239 245 247 246 249 250 247 255 266 239 255 243 210 201 198 194 178 172 166 157 157 163 161 156 150 150 160 165 165 176 164 161 159 162 152 161 143 144
224 217 214 226 228 214 225 240 248 241 236 249 239 254 259 330 270 253 220 199 194 189 176 170 168 163 161 162 160 157 154 156 162 160 161 170 167 167 170 170 161 170 157 158
225 218 201 210 224 229 223 234 247 261 260 269 242 247 242 139 102 222 198 180 178 179 174 171 166 164 162 161 163 162 159 161 162 161 163 167 169 172 166 170 165 163 164 153
228 222 188 203 217 229 223 231 252 264 265 266 247 234 213 180 168 167 160 159 163 169 171 169 162 161 159 163 164 165 162 159 162 164 165 166 167 168 161 161 171 163 160 158
237 236 207 193 205 216 238 238 239 247 255 261 254 244 238 194 222 204 192 176 165 162 165 163 160 158 159 165 166 162 158 160 162 162 165 160 161 166 170 173 166 163 165 164
229 232 209 198 213 216 212 221 234 245 251 261 267 257 52 197 249 222 203 191 177 166 163 159 154 152 153 155 158 156 156 160 163 162 158 154 156 158 166 169 165 162 158 163
211 234 231 221 217 232 228 231 230 241 246 252 268 269 64 80 86 166 174 168 161 158 152 152 152 150 151 154 156 156 160 164 166 162 158 157 158 157 160 156 154 153 154 167
192 217 228 217 207 209 222 226 232 241 249 252 259 254 104 95 106 110 122 130 137 146 146 149 151 152 154 154 155 160 163 163 161 159 157 151 156 158 161 156 155 154 157 170
217 231 239 247 247 219 220 223 230 238 245 251 255 264 265 145 89 71 95 136 145 147 150 154 156 159 158 159 160 164 168 165 162 161 159 154 157 162 166 158 155 161 164 169
227 237 241 250 250 235 233 231 229 236 247 254 258 265 277 299 304 11 97 127 141 152 160 162 162 163 168 164 165 168 169 167 164 166 165 161 160 165 169 162 159 158 168 182
227 240 238 241 235 232 235 234 232 236 242 245 250 260 286 8 173 148 138 143 154 160 167 166 165 166 171 170 171 169 170 171 167 171 172 166 168 166 164 164 165 164 176 195
223 228 237 241 228 237 239 235 228 228 238 242 250 250 145 159 131 161 159 152 148 154 164 173 177 177 176 176 175 176 177 174 173 175 175 173 174 168 167 172 174 180 183 191
235 234 237 241 228 234 214 190 225 218 230 244 250 242 213 211 192 150 132 129 153 149 166 174 181 183 181 177 178 180 179 177 177 178 180 179 180 177 179 182 185 192 194 199
224 225 231 230 230 231 192 193 214 220 213 323 281 270 191 153 155 136 91 58 34 170 181 179 182 184 178 175 175 179 185 184 187 187 187 186 189 185 184 185 187 195 207 217
196 221 229 226 231 233 155 108 256 223 205 55 10 38 68 218 216 130 41 17 25 34 131 155 171 174 173 173 173 180 185 188 196 198 194 187 191 191 193 194 202 209 221 232
196 207 223 230 229 210 44 334 214 219 112 48 28 36 39 357 343 4 8 16 32 42 104 141 159 169 173 174 178 186 190 197 204 206 202 194 193 195 195 193 200 214 226 233
246 227 220 231 229 196 28 112 133 41 47 62 49 74 58 19 13 30 19 14 19 12 145 156 165 163 173 180 189 195 201 207 205 207 206 197 196 203 192 195 207 216 220 219
310 337 314 329 68 64 50 53 47 59 66 62 34 35 44 13 3 5 4 349 337 325 192 180 178 167 177 190 197 206 207 207 207 207 208 204 201 203 205 207 211 215 215 224
45 337 243 142 100 82 68 56 47 44 45 38 31 11 347 335 335 337 332 326 324 322 211 190 187 184 187 198 199 202 201 204 212 214 209 205 205 208 205 216 222 225 224 227
320 303 243 179 111 73 72 40 26 12 6 1 8 0 325 317 333 348 322 326 328 351 174 183 188 187 194 196 209 209 201 205 214 219 217 214 213 209 212 217 233 243 239 235
316 307 299 319 360 310 342 0 0 0 -0 356 359 6 351 338 338 335 308 253 170 184 154 156 198 209 204 209 219 222 216 214 216 222 223 222 221 214 216 215 219 197 243 183
Height
1489 1488 1484 1481 1481 1480 1481 1483 1484 1481 1479 1482 1481 1479 1477 1479 1481 1481 1483 1484 1487 1490 1492 1494 1495 1497 1497 1498 1500 1501 1503 1504 1506 1508 1509 1510 1512 1512 1513 1514 1514 1515 1516 1517
1485 1483 1478 1478 1480 1482 1482 1484 1481 1478 1478 1480 1479 1477 1474 1475 1477 1479 1480 1482 1485 1487 1490 1492 1493 1494 1495 1496 1498 1499 1501 1503 1504 1506 1508 1510 1511 1512 1512 1513 1513 1514 1515 1516
1479 1475 1477 1479 1481 1482 1480 1480 1478 1479 1477 1477 1478 1475 1471 1470 1475 1477 1479 1480 1482 1485 1488 1490 1492 1493 1494 1495 1496 1498 1499 1501 1503 1505 1507 1508 1510 1511 1512 1512 1513 1513 1514 1515
1474 1472 1476 1477 1477 1478 1479 1474 1475 1477 1479 1476 1476 1479 1469 1466 1470 1474 1476 1478 1480 1483 1486 1488 1490 1492 1493 1494 1495 1496 1498 1500 1502 1503 1506 1507 1509 1510 1511 1511 1512 1512 1513 1514
1471 1471 1473 1475 1473 1474 1474 1472 1475 1475 1475 1476 1472 1476 1467 1463 1468 1469 1473 1476 1478 1481 1484 1486 1488 1490 1492 1493 1494 1495 1497 1499 1500 1502 1504 1506 1507 1508 1510 1510 1511 1512 1512 1513
1467 1469 1471 1470 1470 1472 1472 1474 1473 1472 1472 1481 1471 1476 1472 1462 1466 1467 1470 1474 1477 1480 1482 1484 1487 1489 1490 1492 1493 1494 1495 1497 1499 1501 1503 1504 1506 1507 1508 1509 1510 1511 1511 1512
1466 1466 1467 1469 1470 1471 1472 1476 1482 1481 1479 1475 1464 1471 1470 1463 1465 1468 1470 1473 1476 1478 1480 1482 1485 1487 1489 1490 1492 1493 1495 1497 1499 1500 1502 1503 1505 1506 1507 1508 1509 1510 1511 1511
1467 1467 1463 1465 1467 1467 1468 1471 1482 1487 1480 1469 1465 1470 1464 1464 1467 1469 1471 1472 1474 1477 1479 1481 1483 1485 1487 1489 1491 1493 1494 1496 1498 1499 1501 1502 1504 1505 1506 1507 1508 1509 1510 1510
1461 1465 1460 1462 1464 1464 1466 1466 1463 1470 1469 1472 1466 1464 1462 1464 1466 1469 1470 1472 1473 1476 1478 1480 1482 1484 1486 1488 1490 1492 1493 1495 1497 1498 1500 1501 1503 1504 1505 1506 1507 1509 1509 1510
1456 1465 1459 1461 1463 1463 1462 1461 1466 1470 1481 1481 1469 1466 1463 1463 1464 1466 1469 1471 1473 1475 1477 1479 1481 1483 1485 1487 1489 1491 1493 1494 1496 1498 1499 1501 1502 1503 1505 1506 1507 1507 1508 1509
1456 1464 1461 1461 1462 1461 1464 1465 1465 1465 1468 1478 1478 1470 1457 1461 1463 1465 1467 1470 1472 1475 1477 1479 1481 1483 1484 1486 1488 1490 1491 1493 1495 1497 1498 1500 1502 1503 1504 1505 1506 1507 1507 1508
1457 1459 1461 1458 1456 1456 1458 1459 1463 1472 1472 1469 1471 1470 1458 1461 1464 1466 1468 1470 1472 1475 1477 1479 1480 1482 1483 1485 1487 1489 1491 1492 1494 1496 1497 1499 1500 1502 1503 1504 1505 1505 1506 1507
1457 1461 1468 1465 1464 1460 1459 1458 1459 1461 1465 1469 1472 1469 1461 1463 1465 1467 1469 1471 1473 1475 1477 1479 1480 1481 1483 1485 1487 1489 1490 1492 1493 1495 1496 1497 1499 1501 1502 1503 1503 1504 1505 1506
1458 1457 1461 1465 1458 1455 1459 1459 1459 1461 1465 1466 1464 1463 1462 1463 1465 1468 1470 1472 1473 1475 1477 1478 1480 1481 1483 1485 1487 1488 1489 1491 1492 1494 1495 1496 1497 1499 1500 1501 1502 1502 1504 1504
1456 1456 1453 1451 1451 1452 1455 1457 1458 1460 1460 1462 1461 1462 1461 1463 1466 1469 1470 1472 1473 1474 1476 1478 1479 1481 1483 1485 1486 1487 1489 1490 1491 1493 1494 1495 1496 1498 1499 1500 1500 1501 1502 1503
1456 1456 1454 1455 1451 1452 1455 1454 1456 1458 1458 1458 1459 1463 1461 1465 1467 1469 1470 1471 1473 1474 1475 1477 1478 1480 1482 1483 1484 1486 1487 1489 1490 1491 1493 1494 1496 1497 1498 1498 1499 1500 1500 1501
1454 1456 1457 1455 1451 1454 1458 1453 1454 1457 1456 1457 1460 1461 1463 1465 1467 1469 1470 1471 1472 1473 1475 1476 1477 1479 1480 1481 1483 1484 1486 1487 1489 1491 1492 1493 1494 1495 1496 1497 1498 1498 1499 1499
1457 1456 1454 1452 1457 1465 1456 1451 1453 1456 1457 1458 1459 1461 1464 1466 1468 1470 1471 1472 1472 1473 1475 1476 1477 1478 1479 1480 1482 1483 1485 1486 1488 1489 1491 1492 1493 1494 1495 1496 1496 1497 1497 1497
1456 1456 1453 1453 1455 1455 1455 1453 1455 1457 1460 1461 1462 1463 1465 1466 1467 1469 1471 1472 1473 1474 1474 1475 1476 1477 1478 1479 1480 1481 1483 1485 1486 1487 1489 1490 1492 1492 1493 1494 1494 1495 1495 1495
1454 1454 1452 1451 1456 1459 1456 1455 1457 1459 1462 1464 1465 1465 1466 1465 1464 1468 1471 1472 1473 1473 1474 1474 1475 1476 1477 1478 1479 1480 1481 1483 1484 1486 1487 1489 1490 1491 1491 1492 1492 1493 1493 1493
1452 1452 1451 1449 1452 1452 1458 1457 1457 1463 1465 1467 1467 1467 1468 1468 1468 1471 1471 1472 1472 1473 1473 1474 1474 1475 1476 1477 1478 1479 1480 1481 1483 1484 1485 1487 1488 1488 1489 1490 1490 1491 1491 1491
1453 1450 1451 1449 1453 1460 1461 1458 1461 1466 1467 1468 1468 1469 1469 1470 1470 1470 1471 1471 1472 1472 1472 1473 1473 1474 1474 1475 1476 1478 1479 1480 1481 1482 1483 1484 1485 1486 1487 1487 1488 1489 1489 1489
1456 1458 1454 1456 1461 1465 1465 1465 1467 1468 1468 1469 1469 1469 1469 1469 1470 1470 1470 1471 1471 1471 1471 1471 1472 1472 1473 1474 1475 1476 1477 1478 1478 1479 1480 1481 1482 1483 1484 1485 1486 1487 1487 1487
1460 1462 1460 1461 1463 1466 1467 1467 1468 1469 1469 1469 1469 1469 1469 1469 1469 1469 1469 1469 1469 1469 1470 1470 1471 1471 1472 1473 1473 1474 1474 1475 1476 1477 1478 1479 1480 1481 1482 1482 1484 1485 1485 1485
1464 1463 1460 1462 1465 1466 1467 1468 1469 1469 1469 1469 1469 1469 1468 1468 1468 1468 1468 1468 1468 1468 1469 1469 1470 1470 1470 1471 1471 1472 1473 1473 1474 1475 1475 1476 1478 1479 1479 1480 1481 1482 1482 1483
1466 1466 1464 1463 1468 1468 1469 1469 1469 1469 1468 1468 1468 1467 1467 1467 1467 1467 1467 1467 1467 1467 1467 1468 1468 1469 1469 1469 1469 1470 1470 1471 1471 1472 1473 1474 1475 1476 1477 1477 1478 1478 1479 1479